Location: Gollag?dem
(16.8053°N, 80.8024°E)
Time: 17:11:04
(UTC+00:00)

SWIFT - Pass Details

Date: 13 August 2020
Orbit: 545 x 560 km, 20.6° (Epoch: 17 September)

Event Time Altitude Azimuth Distance (km) Brightness Sun altitude
Exits shadow 22:30:44 43° 120° (ESE) 760 3.2 -25.4°
Drops below altitude 10° 22:33:54 10° 86° (E) 1,793 5.8 -24.8°
Sets 22:36:13 0° 81° (E) 2,685 7.1 -24.3°
